Hourly Data

Hourly Data Report for March 05, 2012

All times are specified in Local Standard Time (LST). Add 1 hour to adjust for Daylight Saving Time where and when it is observed.

Metadata including Station Name, Province, Latitude, Longitude, Elevation, Climate ID, WMO ID, TC ID
CHARLOTTETOWN A
PRINCE EDWARD ISLAND
Latitude: 46°17'19.020" N Longitude: 63°07'43.070" W Elevation: 48.80 m
Climate ID: 8300300 WMO ID: 71706 TC ID: YYG
Hourly Data Report for March 5, 2012
Temp Definition
°C

Dew Point Temp Definition
°C

Rel Hum Definition
%

Wind Dir Definition
10's deg
Wind Spd Definition
km/h

Visibility Definition
km

Stn Press Definition
kPa

Hmdx Definition

Wind Chill Definition

Weather Definition

TIME
00:00 -0.4 -2.3 87 20 7 8.0 99.45 -3 Snow Showers
01:00 -0.5 -2.2 88   0 9.7 99.35 Snow Showers
02:00 -0.8 -2.6 88 13 4 4.8 99.29 -2 Snow Showers
03:00 -0.8 -2.3 90   0 1.2 99.26 Snow,Fog
04:00 -0.7 -2.3 89 26 6 4.8 99.27 -3 Fog
05:00 -1.2 -2.7 90   0 8.0 99.28 Fog
06:00 -0.9 -2.6 88 26 6 19.3 99.33 -3 Cloudy
07:00 -1.1 -2.8 88 27 7 24.1 99.39 -4 Mostly Cloudy
08:00 -2.5 -4.4 87 30 19 9.7 99.56 -8 Snow Showers,Fog
09:00 -1.5 -4.8 78 30 22 24.1 99.63 -7 Mostly Cloudy
10:00 -0.6 -4.8 73 29 15 24.1 99.70 -5 Mainly Clear
11:00 -0.1 -4.8 71 30 15 24.1 99.83 -5 Mostly Cloudy
12:00 -1.5 -4.8 78 34 15 12.9 100.04 -6 Cloudy
13:00 -3.1 -6.8 76 36 26 16.1 100.20 -10 Snow Grains
14:00 -3.6 -7.9 72 36 20 19.3 100.35 -10 Snow Grains
15:00 -4.0 -8.1 73 36 20 24.1 100.46 -10 Cloudy
16:00 -4.4 -8.5 73 36 17 24.1 100.56 -10 Mostly Cloudy
17:00 -4.7 -8.7 74 3 20 24.1 100.70 -11 Cloudy
18:00 -4.7 -8.7 74 1 15 24.1 100.86 -10 Cloudy
19:00 -4.6 -9.0 71 2 9 24.1 101.01 -8 Cloudy
20:00 -4.4 -8.5 73 1 11 24.1 101.13 -9 Cloudy
21:00 -4.4 -9.0 70 2 9 24.1 101.27 -8 Cloudy
22:00 -4.7 -8.0 78 3 13 16.1 101.33 -10 Snow Showers
23:00 -4.7 -7.9 78 3 13 16.1 101.40 -10 Snow Showers

Notes on Data Quality.

Legend
  • M = Missing
  • E = Estimated
  • NA = Not Available
  • ‡ = Partner data that is not subject to review by the National Climate Archives